Location: Cuiry
(49.3858°N, 3.7708°E)
Time: 17:23:47
(UTC+00:00)

UNK - Visible Passes

Search period start: 11 April 2026 00:00
Search period end: 21 April 2026 00:00
Orbit: 654 x 672 km, 98.4° (Epoch: 11 April)

Date Brightness Start Highest point End Pass type
(mag) Time Alt. Az. Time Alt. Az. Time Alt. Az.
11 Apr 6.8 02:47:45 10° E 02:50:42 17° ENE 02:53:40 10° NNE visible
11 Apr 3.7 04:22:30 10° S 04:27:06 74° WSW 04:31:43 10° NNW visible
11 Apr 7.5 19:28:27 10° NW 19:29:15 10° NW 19:30:04 10° WNW visible
12 Apr 5.9 03:16:57 10° ESE 03:20:53 29° ENE 03:24:51 10° N visible
13 Apr 4.7 03:46:45 10° SE 03:51:12 52° ENE 03:55:41 10° N visible
14 Apr 6.9 02:42:39 10° E 02:45:20 15° ENE 02:47:59 10° NNE visible
14 Apr 3.7 04:17:02 10° SSE 04:21:38 84° WSW 04:26:16 10° NNW visible
14 Apr 7.3 19:22:20 10° NNW 19:23:53 12° NW 19:25:27 10° WNW visible
15 Apr 6.1 03:11:41 10° ESE 03:15:29 26° ENE 03:19:17 10° N visible
16 Apr 5.0 03:41:23 10° SE 03:45:46 46° ENE 03:50:10 10° N visible
17 Apr 7.0 02:37:37 10° E 02:39:57 14° NE 02:42:15 10° NNE visible
17 Apr 3.8 04:11:35 10° SSE 04:16:11 86° ENE 04:20:47 10° NNW visible
17 Apr 7.2 19:16:28 10° NNW 19:18:30 13° NW 19:20:32 10° W visible
18 Apr 6.3 03:06:27 10° ESE 03:10:04 23° ENE 03:13:42 10° N visible
19 Apr 5.2 03:36:02 10° SE 03:40:19 41° ENE 03:44:38 10° N visible
20 Apr 7.1 02:32:39 10° ENE 02:34:32 12° NE 02:36:27 10° NNE visible
20 Apr 4.0 04:06:07 10° SSE 04:10:42 77° ENE 04:15:17 10° NNW visible
